Location: Dammartin
(48.9032°N, 1.6195°E)
Time: 22:02:04
(UTC+00:00)

YUBILEINY - Visible Passes

Search period start: 28 April 2025 00:00
Search period end: 08 May 2025 00:00
Orbit: 1477 x 1509 km, 82.5° (Epoch: 28 April)

Date Brightness Start Highest point End Pass type
(mag) Time Alt. Az. Time Alt. Az. Time Alt. Az.
28 Apr ? 01:48:20 10° SSE 01:56:30 45° E 02:04:39 10° NNE visible
28 Apr ? 03:44:50 10° SW 03:53:16 49° WNW 04:01:43 10° N visible
29 Apr ? 01:00:37 10° SE 01:07:28 27° ENE 01:14:18 10° NNE visible
29 Apr ? 02:54:55 12° SSW 03:03:20 79° W 03:12:09 10° N visible
30 Apr ? 00:14:32 10° E 00:18:47 15° ENE 00:23:00 10° NE visible
30 Apr ? 02:05:57 13° S 02:13:45 65° E 02:22:22 10° NNE visible
01 May ? 01:16:57 11° SSE 01:24:29 39° E 01:32:19 10° NNE visible
01 May ? 03:12:53 12° SSW 03:20:59 57° WNW 03:29:35 10° N visible
02 May ? 00:29:18 10° ESE 00:35:33 23° ENE 00:41:47 10° NNE visible
02 May ? 02:23:52 17° S 02:31:09 90° ESE 02:39:57 10° N visible
02 May ? 23:44:15 10° E 23:46:58 12° ENE 23:49:41 10° NE visible
03 May ? 01:34:49 17° SSE 01:41:39 56° E 01:50:06 10° NNE visible
03 May ? 03:30:44 10° SW 03:38:48 40° WNW 03:46:56 10° N visible
04 May ? 00:45:45 13° SE 00:52:30 33° E 00:59:56 10° NNE visible
04 May ? 02:41:40 17° SSW 02:48:43 66° WNW 02:57:26 10° N visible
04 May ? 23:58:08 10° ESE 00:03:40 19° ENE 00:09:10 10° NE visible
05 May ? 01:52:34 21° S 01:59:00 79° E 02:07:44 10° NNE visible
06 May ? 01:03:28 19° SSE 01:09:36 48° E 01:17:49 10° NNE visible
06 May ? 02:59:22 15° SW 03:06:28 47° WNW 03:14:49 10° N visible
07 May ? 00:14:20 13° SE 00:20:32 28° E 00:27:31 10° NNE visible
07 May ? 02:10:15 22° SSW 02:16:29 76° WNW 02:25:16 10° N visible
07 May ? 23:27:14 10° ESE 23:31:48 16° ENE 23:36:23 10° NE visible
